GEFSMW_850_meantemp_024.txt.gz
Temperature
17 16 15 15 15 15 15 16 16 15 14 14 14 13 13 12 12 12 12 12 12 12 12 11 11 11 11 10 10 10 9 9 8 8 8 9 9 9 9 10 9 9 9
16 15 14 14 14 14 14 14 14 14 13 13 13 13 13 12 12 12 12 12 12 11 11 11 11 10 10 9 9 8 8 8 7 6 6 6 6 8 7 7 7 7 7
15 15 14 14 14 14 14 14 14 14 14 13 13 13 12 12 12 12 12 11 11 11 11 10 10 10 9 8 8 7 7 6 6 6 5 4 4 4 5 5 5 5 6
15 14 13 13 14 14 14 14 14 13 13 13 13 13 12 12 12 11 11 11 11 10 10 10 9 9 8 7 7 6 6 5 5 5 5 4 3 3 3 3 4 3 3
15 13 13 13 13 13 13 13 13 13 13 12 12 12 12 12 11 10 10 10 10 10 10 9 9 8 7 6 6 6 5 5 4 4 4 4 3 2 2 1 1 1 2
14 13 12 12 12 13 13 13 13 12 12 12 12 12 11 11 10 10 10 9 9 9 9 8 8 7 6 6 5 5 5 4 4 3 3 2 1 1 0 0 0 0 0
13 12 11 11 12 12 12 12 12 12 12 12 11 11 11 10 10 9 9 9 9 8 8 7 6 6 5 5 4 4 4 4 3 2 1 1 0 -0 -0 -1 -1 -1 -1
12 11 11 11 11 12 12 12 12 12 11 11 11 10 10 9 9 9 9 8 8 7 7 6 5 5 4 4 4 3 3 2 2 1 0 -0 -0 -1 -1 -1 -1 -2 -2
12 11 11 10 11 11 11 11 11 11 11 10 10 9 9 9 8 8 8 7 7 6 5 5 4 4 4 3 3 2 2 1 0 -0 -1 -1 -1 -2 -2 -2 -2 -2 -3
12 11 11 10 10 10 10 11 11 11 10 10 9 9 8 8 8 7 7 6 6 5 4 4 4 3 3 3 2 1 1 -0 -1 -1 -2 -2 -2 -2 -2 -3 -3 -3 -3
12 11 10 10 10 10 10 10 10 10 9 9 8 8 7 7 7 6 6 5 4 3 3 3 3 3 2 2 1 0 -1 -2 -2 -2 -3 -3 -3 -3 -3 -3 -4 -4 -4
12 11 10 10 9 9 9 9 9 9 8 8 7 7 7 6 6 5 5 4 3 3 2 2 2 2 1 1 -0 -1 -2 -3 -3 -3 -4 -4 -4 -4 -4 -4 -4 -5 -5
12 11 10 9 9 9 9 8 8 8 7 7 6 6 6 5 5 4 3 3 2 2 2 2 1 1 0 -1 -2 -3 -3 -4 -4 -4 -5 -5 -5 -5 -5 -5 -5 -5 -6
12 11 10 9 8 8 8 7 7 7 6 6 6 5 5 4 4 3 2 2 2 2 1 1 1 -0 -1 -2 -3 -4 -4 -4 -5 -5 -6 -6 -6 -6 -6 -6 -6 -6 -6
12 10 9 8 8 7 7 7 6 6 6 5 5 5 4 3 3 2 2 1 1 1 1 0 -1 -1 -2 -3 -4 -4 -5 -6 -6 -6 -6 -7 -7 -6 -6 -6 -6 -6 -6
11 10 9 8 8 7 6 6 6 5 5 5 4 4 3 3 2 1 1 1 1 0 -0 -1 -2 -2 -3 -4 -5 -5 -6 -6 -6 -7 -7 -7 -7 -7 -7 -7 -7 -7 -7
11 10 9 8 7 6 6 5 5 5 4 4 4 3 2 2 1 1 0 0 -0 -1 -1 -2 -2 -3 -4 -5 -5 -6 -6 -6 -7 -7 -8 -8 -8 -7 -7 -7 -7 -7 -7
11 10 9 8 7 6 5 5 4 4 4 3 3 2 2 1 1 0 0 -0 -1 -1 -2 -2 -3 -4 -5 -5 -6 -6 -6 -7 -7 -8 -8 -8 -8 -8 -8 -8 -7 -8 -8
10 9 8 7 6 5 4 4 4 3 3 3 2 1 1 0 0 -0 -0 -1 -1 -2 -2 -3 -4 -5 -5 -6 -6 -6 -7 -7 -8 -8 -8 -8 -8 -8 -8 -8 -8 -8 -8
9 8 7 6 5 4 4 3 3 3 2 2 1 1 0 -0 -0 -1 -1 -1 -2 -3 -3 -4 -5 -6 -6 -6 -7 -7 -7 -8 -8 -8 -8 -8 -8 -8 -8 -8 -8 -9 -9
8 7 6 5 4 4 3 3 3 2 2 1 1 0 -0 -0 -1 -1 -2 -2 -3 -4 -4 -5 -5 -6 -7 -7 -7 -8 -8 -8 -8 -9 -9 -9 -9 -9 -8 -8 -9 -9 -9
6 6 5 4 3 3 3 3 2 1 1 0 0 -0 -0 -1 -1 -2 -2 -3 -4 -4 -5 -6 -6 -7 -7 -8 -8 -8 -8 -8 -9 -9 -9 -9 -9 -9 -9 -9 -10 -10 -10
5 5 4 4 3 2 2 2 1 1 0 0 -0 -1 -1 -1 -2 -3 -3 -4 -5 -5 -6 -6 -7 -8 -8 -9 -9 -9 -9 -9 -9 -9 -9 -9 -9 -9 -10 -10 -10 -10 -11
5 4 4 3 3 2 1 1 1 0 0 -0 -1 -1 -1 -2 -2 -3 -4 -5 -6 -6 -7 -7 -8 -8 -9 -9 -9 -9 -9 -9 -10 -10 -10 -10 -10 -11 -11 -11 -11 -11 -12
4 3 3 2 2 1 1 0 0 -0 -0 -1 -1 -2 -2 -3 -3 -4 -5 -5 -6 -7 -8 -8 -8 -9 -9 -9 -9 -9 -9 -10 -10 -9 -10 -11 -11 -12 -12 -12 -12 -12 -12
3 3 2 2 1 1 0 -0 -0 -0 -1 -1 -2 -2 -3 -3 -4 -5 -5 -5 -7 -8 -8 -8 -9 -9 -9 -9 -9 -9 -10 -10 -10 -10 -11 -12 -12 -12 -12 -12 -12 -12 -12

GEFSMW_850_meantemp_030.txt.gz
Temperature
18 18 18 18 18 17 17 17 17 16 16 15 15 14 14 13 13 13 12 12 12 11 11 11 11 11 10 10 9 8 8 8 7 7 7 8 8 8 7 7 7 7 7
17 17 17 17 17 17 16 16 16 15 15 15 14 14 13 13 12 12 12 12 11 11 11 11 10 10 9 8 8 7 7 6 6 5 5 5 6 6 6 6 6 6 6
17 17 16 16 16 16 15 15 14 14 14 14 14 13 13 12 12 11 11 11 11 11 10 10 10 9 8 7 6 6 6 5 5 4 4 3 2 2 4 3 4 4 4
17 16 15 15 15 15 14 14 13 13 13 13 13 13 13 12 12 11 11 11 10 10 10 9 9 8 7 6 5 5 5 4 4 4 3 2 1 0 0 1 3 3 3
16 15 14 14 14 14 13 13 13 13 13 13 13 13 12 12 12 11 11 10 10 9 9 8 8 7 6 5 5 4 4 4 3 3 3 2 1 0 -1 -2 -1 0 1
14 14 13 13 12 12 12 12 12 12 12 12 12 12 12 12 11 11 10 9 9 9 8 8 7 6 5 4 4 4 3 3 3 2 2 1 -0 -1 -2 -3 -3 -3 -2
12 13 12 12 12 12 12 12 12 12 12 12 12 12 12 11 11 10 9 9 8 8 7 7 6 5 4 4 3 3 3 3 2 2 1 0 -1 -2 -2 -3 -4 -4 -4
11 11 12 11 11 11 12 12 12 12 11 11 11 11 11 10 9 9 8 8 8 7 7 6 5 4 4 3 3 3 2 2 1 1 0 -1 -1 -2 -3 -4 -5 -5 -4
10 10 11 11 11 11 11 12 12 12 11 11 11 10 10 9 9 8 8 7 7 6 6 5 4 3 3 3 2 2 1 1 1 0 -1 -2 -2 -3 -3 -4 -5 -6 -6
9 10 10 10 10 11 11 11 12 11 11 10 10 10 9 8 8 7 7 7 6 6 5 4 3 3 2 2 1 1 0 0 -0 -1 -2 -3 -4 -4 -4 -4 -5 -6 -7
8 9 10 10 10 10 11 11 11 11 10 10 9 9 8 8 7 7 6 6 5 5 4 3 3 2 2 1 0 -0 -1 -1 -2 -3 -4 -4 -5 -5 -5 -5 -6 -7 -7
8 9 10 9 10 10 10 10 10 10 10 9 8 8 7 7 6 6 6 5 4 4 3 2 2 1 1 0 -1 -1 -2 -2 -3 -4 -4 -5 -5 -6 -6 -6 -7 -7 -7
8 9 9 9 9 10 10 10 9 9 9 8 7 7 6 6 6 5 5 4 3 3 2 1 1 0 -0 -1 -1 -2 -3 -3 -4 -5 -5 -6 -6 -6 -7 -7 -8 -8 -8
8 9 9 9 9 9 9 9 8 8 8 7 6 6 6 5 5 4 4 3 2 2 1 1 0 -0 -1 -1 -2 -2 -3 -4 -5 -5 -6 -6 -7 -7 -8 -8 -8 -8 -8
8 9 9 9 9 9 8 8 8 7 7 6 6 5 5 5 4 3 3 2 2 1 0 -0 -1 -1 -1 -2 -3 -4 -4 -5 -5 -6 -6 -7 -7 -8 -8 -8 -8 -8 -8
8 9 9 9 9 8 8 7 7 6 6 5 5 4 4 4 3 2 2 1 1 0 -0 -1 -1 -2 -2 -3 -3 -5 -5 -6 -6 -7 -7 -7 -8 -8 -8 -8 -8 -8 -8
9 9 9 9 9 8 8 7 6 5 5 4 4 4 3 3 2 2 1 1 0 -0 -1 -1 -2 -2 -3 -3 -4 -5 -6 -6 -7 -7 -8 -8 -9 -9 -9 -9 -9 -8 -8
9 9 9 9 9 8 7 6 5 5 4 4 4 3 3 2 1 1 0 -0 -1 -1 -2 -2 -3 -3 -4 -4 -5 -6 -7 -7 -7 -8 -8 -9 -9 -9 -9 -9 -8 -8 -9
10 10 10 9 8 7 6 5 5 4 4 3 3 2 2 1 1 0 -0 -1 -1 -2 -2 -3 -3 -4 -5 -5 -6 -7 -8 -8 -8 -8 -9 -9 -9 -9 -9 -8 -9 -9 -9
11 10 9 9 8 7 6 5 4 4 3 3 2 2 1 0 0 -0 -1 -2 -2 -3 -3 -3 -4 -5 -5 -6 -8 -8 -8 -9 -8 -9 -9 -9 -9 -9 -9 -9 -9 -10 -10
10 10 9 8 7 6 5 4 4 3 2 2 1 1 0 -0 -1 -1 -2 -2 -3 -3 -3 -3 -4 -5 -6 -7 -8 -9 -9 -9 -9 -9 -9 -9 -10 -9 -9 -10 -10 -10 -10
9 9 8 7 6 5 4 3 3 2 2 1 1 0 -0 -1 -1 -2 -2 -3 -3 -3 -4 -4 -5 -6 -7 -8 -9 -9 -9 -9 -9 -10 -10 -10 -10 -10 -10 -10 -11 -11 -11
8 7 6 5 4 3 3 3 2 2 1 1 0 -0 -1 -1 -2 -3 -3 -3 -3 -4 -4 -6 -7 -7 -8 -8 -9 -9 -9 -9 -10 -10 -10 -10 -10 -11 -10 -11 -11 -11 -12
6 6 5 4 3 2 2 2 1 1 0 -0 -1 -1 -1 -2 -2 -3 -3 -4 -4 -5 -6 -7 -8 -8 -9 -9 -9 -9 -10 -10 -10 -10 -10 -11 -10 -11 -11 -11 -11 -11 -12
5 4 4 3 2 2 1 1 0 0 -0 -1 -1 -2 -2 -2 -3 -3 -4 -4 -5 -6 -8 -8 -9 -9 -9 -9 -10 -10 -10 -10 -10 -10 -11 -10 -11 -11 -11 -12 -12 -12 -12
4 3 3 2 2 1 1 0 -0 -1 -1 -1 -2 -2 -3 -3 -3 -3 -4 -4 -5 -6 -7 -8 -9 -9 -10 -10 -10 -10 -10 -10 -11 -11 -11 -12 -12 -13 -13 -13 -12 -12 -12

GEFSMW_850_meantemp_036.txt.gz
Temperature
17 18 18 19 19 19 19 19 18 18 17 16 15 15 14 14 13 13 13 12 12 12 11 11 11 11 11 11 10 9 9 8 8 8 8 8 8 8 7 7 7 7 7
16 17 17 18 18 18 18 18 18 17 16 16 15 15 14 14 13 13 12 12 12 11 11 11 11 11 10 10 9 8 8 7 6 6 6 6 6 6 6 6 6 5 5
16 17 17 17 18 17 17 18 17 16 15 15 15 14 14 13 13 12 12 11 11 11 11 11 10 10 10 9 8 7 6 6 5 4 3 3 2 3 4 4 4 4 4
16 16 17 17 17 17 17 17 16 15 15 14 14 14 14 13 12 12 12 11 11 10 10 10 10 9 9 8 7 6 5 5 4 4 3 2 1 -0 0 2 3 3 3
16 16 17 17 17 17 16 16 15 14 14 13 13 13 13 13 12 11 11 11 10 10 10 9 9 8 8 7 6 5 5 4 3 3 2 2 1 -1 -2 -2 -0 1 2
16 16 17 17 16 16 15 15 14 13 13 12 13 13 13 12 12 11 11 10 10 9 9 8 8 7 7 6 5 4 4 3 3 2 2 1 -0 -1 -3 -4 -4 -4 -2
15 15 16 16 15 15 14 14 13 13 12 12 12 12 12 12 12 11 10 10 9 9 8 8 7 6 6 5 4 4 3 3 2 2 1 0 -1 -2 -3 -4 -4 -5 -4
15 15 15 16 15 15 14 13 12 12 12 12 12 11 11 11 11 10 10 9 8 8 7 7 6 5 4 4 3 3 3 2 2 1 0 -0 -1 -3 -3 -4 -6 -6 -6
14 14 14 14 14 14 13 13 12 11 11 11 11 11 10 10 10 9 9 8 8 7 7 6 5 4 4 3 3 2 2 2 1 1 -0 -1 -2 -3 -4 -5 -6 -7 -7
13 12 12 12 13 13 12 11 11 11 11 10 10 10 10 9 9 9 8 7 7 6 6 5 4 3 3 2 2 2 1 1 1 0 -1 -2 -3 -4 -5 -6 -6 -7 -8
11 10 10 10 11 11 11 11 11 11 10 10 10 10 9 9 8 8 7 7 6 6 5 4 3 3 2 2 2 1 1 1 0 -1 -2 -3 -4 -5 -5 -6 -7 -7 -8
9 8 8 8 9 10 10 10 10 10 10 10 9 9 9 8 7 7 6 6 5 5 4 3 3 2 2 1 1 1 0 -0 -1 -2 -3 -4 -5 -6 -6 -7 -7 -8 -8
7 6 7 8 9 10 10 10 9 9 9 9 9 8 8 7 7 6 6 5 5 4 3 2 2 2 1 1 1 0 -0 -1 -2 -3 -4 -5 -6 -6 -7 -8 -8 -8 -9
5 5 6 8 9 9 9 9 9 9 9 8 8 8 7 6 6 6 5 4 4 3 2 2 1 1 1 0 -0 -1 -1 -2 -3 -4 -5 -6 -7 -7 -8 -8 -8 -9 -9
5 5 6 8 9 9 9 9 8 8 8 8 7 7 6 6 5 5 4 4 3 2 2 1 1 1 0 -0 -1 -2 -3 -4 -5 -6 -6 -7 -7 -8 -9 -9 -9 -9 -9
5 5 6 8 9 9 8 8 8 7 7 7 6 6 5 5 4 4 3 3 2 1 1 1 0 -0 -0 -1 -2 -3 -4 -5 -6 -7 -7 -7 -8 -8 -9 -9 -9 -9 -8
5 5 7 8 8 8 8 8 7 7 6 6 6 5 5 4 4 3 2 2 1 1 0 0 -0 -1 -1 -2 -2 -3 -5 -6 -7 -7 -8 -8 -8 -9 -9 -9 -9 -9 -9
5 6 7 8 8 8 8 7 7 6 6 5 5 4 4 3 3 2 1 1 1 0 0 -0 -1 -1 -2 -3 -3 -4 -6 -6 -7 -8 -8 -8 -9 -9 -9 -9 -9 -9 -9
7 8 8 9 8 8 7 7 6 6 5 5 4 4 3 3 2 1 1 0 0 -0 -1 -1 -2 -2 -3 -3 -4 -6 -7 -7 -8 -8 -9 -9 -10 -10 -9 -9 -9 -10 -9
8 8 8 8 8 7 7 6 6 5 4 4 3 3 2 2 1 1 0 -0 -0 -1 -1 -2 -2 -3 -3 -4 -5 -7 -8 -8 -9 -9 -9 -10 -10 -10 -9 -9 -10 -10 -10
8 8 8 8 8 7 6 6 5 4 4 3 2 2 1 1 0 0 -0 -1 -1 -1 -2 -2 -3 -3 -4 -5 -6 -7 -9 -9 -9 -9 -9 -10 -10 -10 -10 -10 -10 -10 -10
8 8 8 7 7 6 6 5 4 3 3 2 2 1 1 0 -0 -0 -1 -1 -2 -2 -3 -3 -3 -4 -5 -6 -7 -8 -9 -9 -9 -10 -10 -10 -10 -10 -10 -10 -10 -11 -11
7 7 7 6 6 5 5 5 4 3 2 2 1 1 0 -0 -1 -1 -1 -2 -2 -3 -4 -4 -5 -5 -6 -7 -8 -9 -9 -10 -10 -10 -10 -10 -10 -10 -9 -9 -10 -10 -10
7 6 6 6 5 4 4 4 3 2 1 1 0 -0 -1 -1 -1 -2 -2 -3 -3 -4 -5 -6 -7 -7 -7 -8 -9 -10 -10 -10 -10 -10 -10 -10 -10 -9 -9 -9 -9 -10 -10
6 6 6 5 4 3 2 2 2 1 1 0 -0 -1 -1 -2 -2 -2 -3 -3 -4 -5 -6 -7 -8 -9 -9 -9 -10 -10 -10 -10 -10 -11 -10 -10 -10 -10 -10 -10 -10 -10 -10
5 5 4 4 2 2 1 1 1 0 -0 -1 -1 -1 -2 -2 -2 -3 -3 -4 -5 -6 -7 -7 -8 -8 -9 -9 -10 -10 -10 -10 -10 -11 -10 -10 -10 -10 -11 -10 -10 -10 -9

GEFSMW_850_meantemp_042.txt.gz
Temperature
15 15 15 15 16 17 18 18 19 19 18 18 17 15 14 14 14 13 13 13 13 12 12 12 11 11 11 11 11 11 10 10 9 9 8 7 8 7 6 6 6 5 6
15 15 15 15 15 16 17 18 19 19 18 18 17 15 14 14 13 13 13 13 12 12 11 11 11 11 11 11 10 10 9 9 8 7 6 6 6 5 6 6 6 5 5
15 16 16 16 15 16 17 18 18 18 18 17 16 15 14 13 13 13 13 12 12 11 11 11 11 11 10 10 10 9 8 7 7 6 5 5 6 4 4 5 4 4 4
15 15 15 16 15 16 16 17 17 17 17 17 17 16 14 13 13 12 12 11 11 11 11 10 10 10 10 10 9 8 7 6 5 5 5 4 3 2 3 3 2 1 2
15 15 15 15 15 15 16 17 17 16 16 16 16 14 13 13 13 12 11 11 10 10 10 10 10 10 9 9 8 7 6 6 5 4 4 3 2 1 0 1 1 1 0
14 14 14 14 14 14 15 16 16 16 16 15 14 13 13 13 12 12 11 10 10 10 10 10 9 9 9 8 7 6 5 5 4 4 3 2 1 0 -1 -1 -0 -1 -1
14 14 14 14 13 13 14 15 16 15 15 14 13 13 12 12 12 12 11 10 10 10 9 9 9 8 8 7 6 5 5 4 3 3 2 2 1 0 -1 -2 -2 -2 -2
13 13 13 13 13 13 14 15 15 15 14 13 12 12 12 12 12 11 11 10 10 9 9 9 8 8 7 6 5 4 4 3 3 2 2 1 0 -0 -1 -2 -3 -3 -2
13 13 13 12 12 12 13 14 14 14 13 12 12 11 11 11 11 10 10 9 9 9 8 8 7 7 6 5 4 4 3 3 2 2 1 0 0 -1 -1 -3 -4 -4 -4
12 12 12 11 11 10 11 12 12 13 12 12 11 11 11 11 10 9 9 9 9 8 8 7 6 6 5 4 3 3 2 2 1 1 1 -0 -1 -1 -2 -3 -4 -5 -5
11 11 11 10 9 8 8 9 10 10 11 11 11 11 10 9 9 8 8 8 8 7 7 6 5 5 4 3 3 2 2 1 1 0 -0 -1 -2 -2 -3 -4 -5 -6 -6
10 10 9 9 8 7 7 7 8 10 10 11 10 10 9 8 8 8 8 8 7 6 6 5 4 4 3 2 2 2 1 1 0 -1 -1 -2 -3 -3 -4 -5 -6 -6 -7
8 8 8 7 6 6 6 6 8 9 10 10 10 9 8 8 8 8 7 7 6 6 5 4 3 3 2 2 1 1 1 0 -1 -1 -2 -3 -4 -4 -5 -6 -7 -7 -7
7 7 6 6 5 5 5 6 8 9 10 9 9 8 8 7 7 7 7 6 5 5 4 3 2 2 2 1 1 0 -0 -1 -1 -2 -3 -3 -5 -5 -6 -7 -7 -8 -8
6 5 5 4 4 4 5 7 8 9 9 8 8 7 7 7 7 6 6 5 4 4 3 2 2 1 1 0 -0 -1 -1 -2 -2 -3 -4 -5 -5 -6 -7 -8 -8 -8 -8
5 4 3 3 3 4 6 7 8 8 8 8 7 7 7 6 6 5 5 4 3 3 2 1 1 1 0 -0 -1 -1 -2 -3 -3 -4 -5 -6 -6 -7 -8 -8 -9 -9 -9
4 3 3 3 3 4 6 7 7 7 7 7 7 6 6 6 5 4 3 3 2 2 1 1 0 0 -0 -1 -1 -2 -2 -3 -4 -5 -6 -7 -7 -8 -9 -9 -9 -9 -8
3 3 2 2 3 4 5 7 6 6 6 6 6 6 5 5 4 3 2 2 1 1 0 0 -0 -1 -1 -1 -2 -3 -3 -4 -5 -5 -7 -7 -8 -9 -9 -9 -9 -9 -9
4 3 3 4 4 5 6 6 6 6 6 6 5 5 4 4 3 2 1 1 0 0 -0 -0 -1 -1 -2 -2 -3 -3 -4 -5 -6 -7 -7 -8 -9 -9 -9 -9 -9 -9 -9
4 4 4 4 5 5 6 6 6 6 5 5 4 4 3 2 2 1 1 0 -0 -0 -1 -1 -1 -2 -2 -3 -3 -4 -6 -7 -7 -8 -8 -8 -9 -9 -9 -9 -9 -9 -9
5 5 5 5 6 6 6 6 6 5 5 4 3 2 2 1 1 0 -0 -0 -1 -1 -1 -2 -2 -3 -3 -4 -4 -5 -7 -8 -8 -9 -9 -9 -9 -9 -9 -9 -10 -10 -10
4 5 5 5 5 5 6 6 5 4 4 3 2 2 1 1 0 -0 -1 -1 -1 -2 -2 -2 -3 -3 -4 -5 -5 -6 -7 -9 -9 -9 -9 -9 -9 -9 -9 -9 -9 -10 -10
4 4 5 5 4 4 5 5 4 3 3 2 1 1 0 -0 -0 -1 -1 -2 -2 -2 -3 -3 -4 -4 -5 -5 -6 -7 -8 -9 -9 -10 -10 -9 -9 -9 -9 -9 -9 -9 -9
4 4 4 4 4 4 4 4 3 2 2 1 1 0 -0 -1 -1 -1 -2 -2 -3 -3 -4 -5 -5 -6 -6 -7 -8 -9 -9 -9 -10 -10 -9 -9 -9 -9 -9 -9 -9 -9 -10
3 3 4 4 4 3 3 3 2 2 1 1 0 -0 -1 -1 -2 -2 -2 -3 -3 -4 -5 -6 -6 -7 -8 -8 -9 -10 -10 -10 -10 -10 -10 -10 -10 -9 -9 -9 -9 -9 -9
3 3 4 4 3 3 2 2 1 1 0 0 -1 -1 -1 -2 -2 -3 -3 -3 -4 -5 -6 -6 -7 -7 -8 -9 -9 -10 -10 -10 -10 -10 -10 -10 -10 -10 -10 -9 -9 -9 -9